STARLINK-35613, 66097

Orbit data source: Space-Track

STARLINK-35613, 66097 is a payload satellite owned by SpaceX/Seattle (US) in LEO that was launched on Sun, 19 Oct 2025 UTC via an FALCON 9 launch vehicle from the Air Force Western Test Range (AFWTR). Payload-class satellites include a variety of spacecraft equipped with specific instruments for various scientific and technological missions. These include communications satellites like Starlink; space stations such as the ISS; scientific satellites like the Hubble; Earth observation satellites from companies like Planet Labs, Umbra, and HawkEye 360; GPS; miniature CubeSats for education and research; and military/defense satellites.

Loading next visibility...
Identifier
66097, 2025-236M
Orbit
LEO
Country
Flag of USUS
Related business
Manufacturer
SpaceX/Seattle
Mission
Operational Commercial Communications
Bus & Motor
STARLINK V2MO, Unknown motor
Mass
575 kg wet, ~530 kg dry
Launch date (UTC)
2025-10-19 (8 months ago)
Launch vehicle
FALCON 9
Launch site
Air Force Western Test Range (AFWTR)
Object type
Payload
Rocket body
Debris
Shape & HBR
Box + 2 Pan, 17.7 m
Radar Cross Section
36.964 m², Large (>1 m²)

Expand to show TLE details & history
Last TLE update: 12 hours ago

TLE from 12 hours ago
0 STARLINK-35613
1 66097U 25236M   26171.47469638  .00024708  00000-0  84367-3 0  9992
2 66097  53.1611 346.2919 0001913  76.0882 284.0332 15.30196091 38688
Epoch: 2026-06-20T11:23Z
TLE epoch observation values (Epoch: 2026-06-20T11:23:33.767Z)
Latitude
0.00003°
Longitude
-93.28757°
Altitude
475.809 km
Speed
7.629 km/s
True Right ascension
23h 05m 10s
True Declination
0° 00' 00"
Sunlit
Object was in daylight at epoch
Visualization orbit readout
Latitude
Unknown
Longitude
Unknown
Altitude
Unknown
Speed
Unknown
Apparent Right ascension
Unknown
Apparent Declination
Unknown
Sunlit
N/A
Visualization observer readout
Local Sidereal Time
10:18:02
Azimuth
Unknown
Elevation
Unknown
Doppler factor
Unknown
Orbital elements
Apogee altitude
476.794 km
Perigee altitude
474.172 km
Semi-major axis
6,853.62 km
Eccentricity
0.00019
Inclination
53.1611°
RAAN
346.2919°
Arg. of periapsis
76.0882°
True anomaly
284.01193°
Mean anomaly
284.0332°
Eccentric anomaly
284.02257°
Mean motion
3.82528 °/min
Orbital period
94.11 mins
BSTAR
0.00084367
Loading maneuver chart data...
Computing Atmospheric mass density...
Loading historical data...
Loading historical data...
Loading historical data...
Loading historical data...
Loading historical data...
Loading historical data...
Loading historical data...

Documentation

Showing up to 5 results
|